Temperature
7 7 8 8 8 8 8 9 9 8 8 9 9 9 9 9 9 9 10 10 10 10 10 10 10 11 11 11 11 11 11 11 11 11 10 10 10 10 10 10 9 9 9
7 7 7 8 8 8 8 8 8 8 8 8 8 8 8 8 9 9 9 9 9 10 10 10 10 10 10 10 10 10 10 10 10 10 10 9 9 9 10 9 9 9 9
6 6 7 7 7 8 8 8 8 8 8 8 8 8 8 8 8 8 9 9 9 9 9 9 9 10 10 10 10 10 10 10 10 10 9 9 9 8 9 9 9 9 9
6 6 6 7 7 7 7 7 7 7 7 7 7 8 7 8 8 8 8 8 8 8 9 9 9 9 9 9 9 9 9 9 9 9 9 9 9 8 8 8 8 8 8
6 6 6 6 7 7 7 7 7 7 7 7 7 7 7 7 7 7 7 7 8 8 8 8 8 8 8 9 9 9 9 9 9 9 9 8 8 8 8 7 8 8 8
6 6 6 6 6 6 6 6 6 7 7 7 7 7 7 7 7 7 7 7 7 7 7 7 7 8 8 8 8 8 8 8 8 8 8 8 8 8 7 7 7 7 7
6 6 6 6 6 6 6 6 6 6 6 6 6 6 6 6 6 6 6 6 6 7 7 6 7 7 7 7 7 7 7 8 8 8 8 7 7 7 7 7 7 6 7
5 5 5 5 5 5 6 6 6 6 6 6 6 6 6 6 6 6 6 6 6 6 6 6 6 6 6 6 6 7 7 7 7 7 7 7 7 7 7 6 6 6 6
5 5 5 5 5 5 5 5 5 5 5 5 5 5 5 5 5 5 5 5 5 5 5 5 5 6 6 6 6 6 6 6 6 6 6 6 6 6 6 6 6 6 5
4 4 4 5 5 5 5 5 5 5 5 5 5 5 5 5 5 5 5 5 5 5 5 5 5 5 5 5 5 5 5 5 5 5 6 6 5 5 5 5 5 5 5
4 4 4 4 5 5 5 5 5 5 5 5 5 5 5 5 5 5 5 5 4 4 5 5 4 5 5 5 5 5 5 5 5 5 5 5 5 5 5 5 5 5 4
3 3 4 4 4 4 4 4 5 4 4 4 4 4 4 4 4 4 4 4 4 4 4 4 4 4 4 4 4 4 4 4 4 4 4 4 5 4 4 4 4 4 4
3 3 3 3 3 4 4 4 4 4 4 4 4 4 4 4 4 4 4 4 4 4 4 4 3 3 3 3 3 3 4 4 4 4 4 4 4 4 4 4 4 4 4
2 2 2 2 3 3 3 4 4 4 4 4 4 4 4 3 3 3 3 3 3 3 3 3 3 3 3 3 3 3 3 3 3 3 3 3 3 4 3 3 3 3 3
2 2 2 2 2 3 3 3 3 3 3 3 3 3 3 3 3 3 3 3 3 3 3 3 2 2 2 2 2 2 2 2 3 3 3 3 3 3 3 3 3 3 3
1 1 1 2 2 2 2 3 3 3 3 3 3 3 3 3 2 2 2 2 2 2 2 2 2 2 2 2 2 2 2 2 2 2 2 2 2 2 2 2 2 2 2
1 1 1 1 1 2 2 2 2 2 2 2 3 2 2 2 2 2 2 2 2 2 2 2 2 1 1 1 1 1 1 1 1 2 2 2 2 2 2 2 2 2 2
0 0 1 1 1 1 2 2 2 2 2 2 2 2 2 2 2 2 2 2 1 1 1 1 1 1 1 1 1 1 1 1 1 1 1 1 2 1 1 1 1 2 2
0 0 0 0 1 1 1 1 1 2 2 2 2 1 1 1 1 1 1 1 1 1 1 1 1 0 0 0 0 0 0 0 0 0 1 1 1 1 1 1 1 1 1
-0 -0 0 0 0 1 1 1 1 1 1 1 1 1 1 1 1 1 1 0 0 0 0 0 0 -0 -0 -0 -0 -0 -0 -0 -0 -0 -0 0 0 0 0 0 1 1 1
-0 -0 -0 -0 0 0 0 0 1 1 1 1 1 1 0 0 0 0 0 0 -0 -0 -0 -0 -0 -1 -1 -1 -1 -1 -1 -1 -1 -1 -1 -1 -1 -0 -0 -0 -0 0 0
-1 -1 -1 -0 -0 -0 -0 0 0 0 0 0 0 0 -0 -0 -0 -0 -0 -0 -1 -1 -1 -1 -1 -1 -1 -1 -1 -1 -2 -2 -2 -1 -1 -1 -1 -1 -1 -1 -1 -0 -0
-1 -1 -1 -1 -1 -1 -1 -1 -0 -0 -0 -0 -0 -0 -1 -1 -1 -1 -1 -1 -1 -1 -1 -2 -2 -2 -2 -2 -2 -2 -2 -2 -2 -2 -2 -2 -2 -1 -1 -1 -1 -1 -0
-2 -2 -1 -1 -1 -1 -1 -1 -1 -1 -1 -1 -1 -1 -1 -1 -1 -2 -2 -2 -2 -2 -2 -2 -2 -2 -2 -2 -2 -2 -2 -2 -2 -2 -2 -2 -2 -2 -2 -1 -1 -1 -1
-2 -2 -2 -2 -2 -2 -2 -2 -2 -2 -2 -2 -2 -2 -2 -2 -2 -2 -2 -2 -3 -3 -3 -3 -3 -3 -3 -3 -3 -3 -3 -3 -3 -3 -2 -2 -2 -2 -2 -2 -2 -2 -1
-2 -2 -2 -2 -2 -2 -2 -2 -2 -2 -2 -2 -2 -2 -3 -3 -3 -3 -3 -3 -3 -3 -3 -3 -3 -3 -4 -3 -3 -3 -3 -3 -3 -3 -3 -3 -3 -3 -3 -3 -3 -2 -2
Wind_Speed
2 1 2 2 3 3 3 3 3 2 2 1 1 1 1 1 1 2 3 4 3 3 3 2 2 2 2 1 1 1 2 1 1 2 1 1 1 1 1 1 1 0 0
3 2 1 2 2 2 3 2 2 2 1 1 1 1 1 0 1 2 3 3 3 3 2 2 1 2 2 2 1 1 1 1 1 2 2 0 2 1 1 1 1 1 1
2 2 1 1 1 0 2 3 2 2 1 1 1 2 2 2 2 1 1 2 3 3 2 2 1 1 1 1 1 1 2 2 0 1 2 2 2 2 1 1 1 1 1
1 2 1 1 0 1 1 2 2 2 2 2 2 3 2 1 0 0 1 2 3 3 3 2 2 1 1 1 0 1 0 2 1 0 0 1 2 1 1 2 1 1 2
1 1 1 1 1 1 1 1 2 2 2 2 3 3 2 1 1 1 2 2 3 4 3 2 2 2 1 1 1 1 1 0 1 1 0 1 1 1 1 2 2 2 2
3 2 1 1 2 2 1 1 1 2 2 2 2 3 3 2 2 2 2 2 2 2 3 3 2 3 2 1 1 1 1 1 0 0 0 1 1 1 1 1 2 3 3
2 1 2 2 1 1 2 0 1 2 2 2 2 2 3 3 3 2 1 1 1 2 1 2 2 2 1 2 1 1 1 1 1 0 0 0 0 1 1 1 1 2 3
2 2 2 1 1 1 1 1 1 2 2 2 2 2 2 2 2 2 1 1 0 1 1 1 1 2 2 2 1 1 0 0 0 0 0 0 0 1 1 1 1 2 2
3 3 2 1 1 1 1 1 1 2 2 2 2 2 2 2 2 1 1 1 1 1 2 1 1 2 2 1 1 0 0 0 0 0 1 0 1 0 0 1 1 1 2
4 4 3 2 2 1 1 1 1 2 2 3 2 2 2 2 2 1 1 1 1 1 1 1 1 2 2 1 1 0 0 0 0 0 1 0 1 0 0 0 1 1 2
4 4 3 3 2 2 1 1 1 0 1 2 2 2 2 2 2 1 1 1 0 1 1 1 1 1 1 0 0 0 1 0 0 0 0 1 1 0 0 0 0 1 1
4 3 3 3 3 2 2 1 1 1 1 2 2 2 1 2 2 1 1 1 0 0 1 1 1 1 1 0 0 0 0 0 1 1 1 1 1 1 1 1 1 1 1
5 5 4 3 3 3 3 2 1 1 1 1 2 2 2 2 1 1 1 1 1 0 0 1 1 1 1 1 1 0 1 1 1 1 1 1 1 1 1 1 1 2 2
5 5 4 4 4 4 3 2 2 1 0 1 2 2 1 2 2 1 1 1 1 0 0 1 1 1 1 1 1 0 0 1 1 1 1 2 2 2 2 2 2 1 1
5 5 4 4 5 4 4 3 2 1 0 1 1 1 1 1 1 1 1 0 0 0 0 1 1 1 1 1 1 0 0 1 1 2 2 2 2 2 2 2 1 1 1
5 5 4 4 5 5 4 3 2 2 0 1 1 1 1 1 1 1 1 0 0 1 1 1 1 1 2 2 1 1 0 1 1 2 2 2 2 2 4 4 3 2 2
5 4 4 4 5 4 3 3 3 1 0 0 1 1 1 1 1 1 1 1 1 1 1 2 1 2 2 3 2 1 0 1 1 2 2 2 2 3 2 3 4 4 4
4 4 4 5 5 4 3 2 2 1 0 0 0 0 0 0 0 0 0 1 1 1 1 1 1 1 2 3 3 2 1 0 1 2 2 2 2 3 2 2 2 3 3
3 4 4 4 4 4 3 2 2 1 1 1 1 1 1 1 0 1 1 1 1 1 1 1 1 1 2 3 3 2 1 1 2 2 2 2 2 4 5 2 3 4 3
2 3 3 4 4 4 3 1 1 1 1 2 2 1 1 1 1 1 1 1 1 1 1 1 1 1 2 3 2 2 0 1 2 2 3 3 4 5 6 3 2 4 4
3 2 2 3 3 4 2 1 1 2 2 2 1 1 1 1 1 0 0 0 0 1 1 1 1 1 1 2 3 2 0 1 2 2 2 3 6 6 6 5 3 5 4
2 2 2 3 4 3 1 2 2 3 2 1 1 1 0 0 0 1 0 0 0 1 1 1 2 1 1 2 3 3 3 3 1 2 3 4 7 7 6 5 5 4 3
2 2 2 3 4 3 2 2 3 2 1 1 1 1 1 1 1 1 0 1 1 0 1 1 1 2 1 2 4 4 4 4 2 2 4 6 7 6 4 5 6 3 2
2 2 2 2 3 3 3 3 2 1 1 1 1 1 1 1 1 1 0 0 0 0 1 1 1 2 2 2 2 2 2 3 3 2 4 6 6 4 5 5 4 3 2
2 2 2 2 3 3 3 3 2 1 1 0 1 1 1 1 1 1 1 1 1 2 2 2 2 1 2 3 5 3 2 1 2 2 2 2 3 3 3 3 3 3 2
1 1 1 2 3 2 3 3 2 1 0 0 0 0 0 0 0 1 2 3 2 3 3 2 2 2 3 5 5 5 4 4 3 2 1 2 3 3 3 4 3 3 3
Wind_Direction
305 360 53 97 108 120 128 131 123 122 115 128 133 117 94 80 57 49 53 60 64 71 65 69 101 100 119 112 105 120 131 103 115 99 49 357 40 126 163 177 167 112 23
346 344 48 82 96 124 142 139 143 145 147 174 181 167 148 116 79 43 47 49 51 56 70 71 82 107 115 102 80 108 127 109 107 126 130 348 337 336 279 231 210 223 314
307 317 4 49 76 118 173 167 175 165 165 159 114 86 65 45 34 28 36 20 37 39 44 65 69 95 122 135 124 139 139 160 161 114 135 150 219 297 296 245 236 264 272
348 341 340 356 343 281 181 171 173 168 160 149 140 137 134 127 251 218 67 24 34 37 34 46 57 76 90 120 148 69 156 153 180 184 84 138 148 162 288 299 276 269 262
290 294 292 314 348 357 86 146 162 154 142 141 150 146 140 119 98 82 62 37 21 19 24 37 52 55 61 90 77 37 29 138 178 165 143 84 74 120 183 267 298 302 268
304 283 300 19 31 17 31 84 147 130 122 126 136 139 138 123 111 79 73 29 11 9 14 25 44 44 38 50 70 54 45 18 33 69 100 148 154 185 179 246 280 291 287
294 312 350 358 351 354 354 352 162 138 132 137 141 143 152 146 148 142 138 69 2 350 349 9 33 43 34 38 54 75 51 28 35 116 56 50 184 164 157 182 282 295 298
322 299 278 250 243 309 340 328 185 160 157 160 158 152 150 149 156 157 155 162 277 294 326 360 23 26 37 54 54 84 185 131 45 31 84 20 281 119 141 174 212 298 294
315 309 305 280 255 269 281 286 206 175 170 170 154 152 158 154 145 147 127 103 357 339 3 8 33 18 24 56 91 55 297 183 182 196 194 14 333 108 151 148 178 198 269
335 332 319 296 269 265 287 305 251 182 176 172 169 161 168 157 143 140 117 70 359 353 1 1 19 13 9 30 73 10 331 49 311 247 137 40 355 50 17 199 236 215 228
322 324 322 322 313 306 307 325 333 192 174 174 169 161 165 151 134 140 143 144 252 336 1 340 358 357 345 358 71 350 7 29 325 339 179 295 346 316 290 290 259 264 248
322 322 325 340 338 321 310 300 293 249 200 179 157 159 149 131 133 157 164 172 184 322 326 334 340 328 332 317 184 289 309 286 278 271 284 301 321 328 281 258 259 262 273
344 343 342 341 327 315 308 306 286 265 236 175 155 152 150 147 166 184 171 169 155 187 339 357 289 284 291 272 287 274 278 280 284 258 242 273 262 280 282 267 259 271 293
347 345 344 341 332 319 310 312 294 271 220 155 152 157 171 182 187 184 175 171 165 142 7 325 290 294 292 252 244 214 308 298 304 288 244 246 244 252 269 265 265 285 301
339 333 332 332 334 332 326 324 326 320 343 136 150 179 182 169 149 148 177 163 160 343 294 307 304 301 288 239 218 202 299 280 290 302 283 262 272 289 296 297 282 275 281
324 325 330 327 325 326 324 325 319 315 335 162 182 188 142 149 161 176 162 145 305 313 304 294 290 299 300 302 307 4 208 254 261 284 297 287 293 309 319 321 320 307 278
315 317 316 316 312 315 323 315 303 317 355 224 198 164 159 190 209 180 150 196 241 265 281 286 276 286 298 316 313 319 27 254 263 269 282 295 307 314 296 318 326 318 313
303 310 312 314 311 309 317 322 332 16 12 243 328 267 186 207 233 143 224 252 246 249 260 278 255 276 303 322 326 337 32 310 279 286 276 274 293 300 301 293 305 293 287
289 299 303 305 314 318 321 336 352 15 17 327 299 281 229 203 201 222 250 256 247 261 265 279 238 255 293 314 327 5 34 325 307 309 301 291 281 301 306 291 293 300 296
304 312 317 324 328 324 332 2 332 347 322 299 287 265 216 193 206 230 240 264 261 266 286 302 265 243 274 306 334 1 29 321 321 319 312 297 299 303 312 280 271 285 291
309 322 327 324 316 317 344 2 339 304 302 315 317 299 235 219 209 206 264 315 332 353 336 331 336 305 299 312 333 350 354 301 310 313 310 305 311 309 312 304 269 275 295
316 328 329 324 324 327 349 349 315 306 327 356 21 358 318 283 105 102 14 13 51 34 353 -0 355 339 318 327 327 337 334 328 295 299 298 301 318 317 317 312 294 301 315
290 305 309 317 327 335 342 318 309 324 2 51 40 2 14 24 57 98 62 28 62 52 327 340 334 336 333 329 335 334 334 333 330 308 312 316 321 326 321 318 313 310 297
279 296 307 308 318 328 331 315 322 2 68 64 26 25 46 24 18 27 28 72 207 254 281 293 301 313 322 319 317 319 330 340 337 335 331 334 334 335 331 330 329 319 290
278 269 263 278 299 320 329 331 340 28 67 55 35 26 24 31 12 359 332 285 240 237 247 245 248 271 292 304 319 328 321 320 312 337 355 349 339 335 329 324 317 317 322
267 271 272 284 300 317 323 330 342 2 63 352 346 343 329 350 3 342 338 337 325 318 312 307 298 288 302 313 322 328 333 336 337 358 339 320 313 307 309 310 313 311 312
Height
1502 1501 1500 1500 1500 1501 1501 1501 1502 1502 1502 1502 1502 1503 1503 1503 1504 1505 1505 1505 1506 1505 1506 1506 1507 1508 1508 1509 1509 1510 1511 1512 1513 1515 1515 1516 1516 1517 1517 1517 1517 1517 1516
1501 1500 1499 1499 1499 1499 1500 1500 1500 1501 1501 1501 1501 1501 1502 1502 1502 1503 1503 1504 1504 1504 1504 1504 1505 1505 1506 1507 1508 1508 1508 1509 1511 1511 1512 1513 1514 1513 1514 1514 1514 1514 1514
1500 1499 1498 1498 1498 1498 1498 1499 1499 1500 1500 1500 1500 1500 1500 1500 1500 1500 1501 1501 1502 1502 1502 1503 1503 1503 1504 1505 1505 1506 1506 1506 1508 1509 1510 1510 1509 1510 1511 1511 1511 1511 1511
1500 1499 1498 1497 1497 1497 1497 1497 1498 1498 1498 1498 1498 1498 1497 1497 1498 1498 1498 1499 1500 1499 1500 1500 1501 1502 1503 1503 1503 1504 1504 1504 1505 1506 1507 1508 1507 1508 1507 1508 1508 1508 1508
1500 1498 1498 1496 1496 1496 1495 1495 1496 1496 1496 1495 1496 1496 1496 1496 1497 1497 1496 1497 1498 1498 1498 1498 1498 1499 1500 1501 1501 1502 1502 1502 1503 1503 1504 1504 1505 1505 1505 1504 1504 1505 1505
1499 1497 1497 1495 1495 1495 1494 1494 1494 1494 1494 1494 1494 1494 1494 1495 1495 1495 1495 1495 1495 1496 1496 1496 1496 1496 1498 1499 1499 1500 1500 1500 1500 1501 1501 1501 1502 1502 1502 1501 1501 1501 1501
1497 1496 1494 1493 1493 1493 1492 1492 1492 1492 1492 1492 1492 1492 1493 1493 1493 1493 1494 1494 1494 1494 1495 1495 1495 1495 1496 1497 1497 1498 1498 1498 1498 1498 1498 1499 1499 1499 1499 1499 1498 1498 1497
1496 1495 1494 1493 1492 1491 1491 1491 1490 1490 1490 1490 1491 1491 1492 1492 1492 1492 1492 1492 1492 1493 1493 1494 1494 1494 1494 1495 1495 1496 1496 1496 1496 1496 1496 1496 1496 1496 1496 1496 1496 1495 1494
1495 1494 1492 1492 1491 1491 1490 1489 1489 1488 1489 1489 1488 1489 1490 1490 1490 1490 1491 1491 1492 1492 1492 1492 1492 1492 1492 1493 1493 1493 1494 1494 1494 1493 1493 1493 1493 1493 1493 1494 1494 1494 1491
1494 1493 1492 1491 1490 1490 1489 1489 1487 1487 1487 1487 1487 1487 1488 1488 1488 1489 1489 1489 1490 1490 1490 1490 1490 1490 1490 1491 1491 1491 1492 1492 1491 1491 1491 1491 1490 1490 1491 1491 1491 1491 1490
1494 1492 1491 1491 1490 1489 1488 1487 1486 1486 1486 1486 1486 1486 1486 1487 1487 1488 1487 1488 1488 1488 1488 1489 1489 1489 1489 1489 1489 1489 1489 1489 1489 1489 1488 1488 1488 1488 1488 1488 1488 1487 1487
1494 1492 1491 1490 1489 1488 1487 1486 1485 1485 1485 1484 1484 1485 1485 1485 1485 1485 1485 1486 1487 1487 1487 1487 1487 1487 1487 1487 1487 1486 1487 1487 1486 1486 1486 1485 1485 1485 1485 1485 1485 1484 1483
1493 1491 1489 1488 1487 1486 1485 1485 1484 1483 1483 1483 1482 1483 1483 1483 1483 1483 1484 1485 1485 1485 1485 1485 1485 1485 1485 1484 1484 1484 1484 1484 1484 1484 1483 1483 1483 1482 1482 1482 1481 1481 1480
1492 1490 1489 1487 1486 1485 1484 1483 1482 1482 1481 1481 1481 1481 1481 1481 1481 1482 1482 1482 1482 1482 1482 1482 1482 1482 1482 1482 1482 1482 1482 1481 1481 1481 1480 1480 1480 1479 1479 1479 1478 1477 1477
1491 1489 1488 1486 1485 1483 1482 1481 1480 1480 1480 1480 1479 1479 1480 1480 1480 1480 1480 1480 1480 1480 1480 1480 1480 1480 1479 1479 1479 1479 1479 1479 1478 1478 1477 1477 1477 1477 1476 1476 1475 1474 1473
1490 1488 1486 1485 1483 1482 1480 1480 1479 1479 1479 1478 1478 1478 1478 1478 1478 1478 1478 1478 1478 1478 1478 1477 1477 1477 1477 1477 1477 1477 1476 1476 1475 1475 1474 1474 1474 1474 1473 1473 1472 1471 1470
1488 1486 1485 1483 1482 1481 1479 1479 1478 1478 1477 1476 1476 1476 1476 1475 1476 1476 1476 1476 1476 1476 1475 1475 1475 1475 1475 1475 1474 1474 1473 1473 1472 1472 1471 1471 1470 1470 1469 1469 1469 1468 1467
1486 1484 1483 1481 1480 1479 1478 1477 1476 1476 1475 1474 1474 1474 1473 1473 1473 1473 1473 1473 1474 1474 1473 1473 1472 1472 1472 1472 1471 1471 1470 1470 1469 1469 1468 1468 1467 1467 1467 1466 1466 1465 1464
1484 1482 1481 1479 1478 1476 1476 1475 1474 1473 1473 1472 1472 1471 1471 1471 1471 1471 1471 1472 1472 1471 1471 1470 1470 1470 1469 1469 1469 1469 1468 1467 1466 1466 1465 1464 1464 1464 1464 1464 1462 1461 1460
1481 1480 1478 1477 1475 1474 1474 1473 1472 1471 1470 1470 1470 1470 1469 1469 1469 1469 1469 1469 1469 1469 1469 1468 1468 1467 1467 1467 1466 1466 1465 1464 1463 1462 1462 1462 1462 1461 1461 1460 1459 1458 1457
1478 1477 1476 1474 1473 1472 1471 1470 1469 1469 1469 1468 1468 1467 1467 1467 1467 1467 1467 1467 1467 1467 1466 1466 1465 1465 1465 1464 1464 1463 1463 1462 1461 1460 1459 1459 1459 1458 1457 1457 1456 1455 1454
1475 1475 1474 1472 1471 1470 1469 1468 1467 1467 1466 1466 1465 1465 1465 1465 1465 1465 1465 1465 1465 1464 1464 1463 1463 1463 1462 1462 1461 1461 1460 1460 1458 1457 1457 1456 1455 1455 1454 1453 1452 1452 1451
1473 1472 1471 1470 1470 1468 1467 1466 1465 1465 1464 1463 1463 1463 1463 1463 1463 1462 1462 1462 1462 1462 1462 1461 1461 1460 1460 1460 1459 1459 1458 1457 1456 1455 1454 1453 1452 1451 1450 1450 1449 1448 1448
1471 1470 1469 1468 1467 1466 1466 1465 1464 1463 1462 1461 1461 1461 1461 1461 1461 1460 1460 1460 1460 1460 1459 1459 1459 1458 1458 1457 1456 1456 1455 1454 1453 1452 1451 1450 1449 1448 1448 1447 1446 1445 1445
1469 1468 1467 1466 1465 1465 1464 1463 1462 1461 1460 1459 1459 1459 1459 1458 1458 1458 1458 1458 1458 1458 1458 1457 1457 1456 1455 1455 1455 1454 1453 1452 1451 1450 1449 1448 1447 1446 1445 1444 1443 1443 1442
1466 1465 1465 1464 1464 1463 1462 1461 1460 1459 1459 1458 1457 1457 1457 1456 1456 1456 1456 1456 1456 1456 1455 1455 1455 1454 1453 1453 1452 1452 1451 1450 1449 1448 1446 1445 1444 1443 1442 1441 1440 1440 1439